When you browse on this site, cookies collect data to enhance your experience and personalize the content and advertising you see.
Visit our Privacy Policy to learn more. By continuing to use the site, you agree to this use of cookies and data.
  • In Germany
  • List of Countries
  • For 7 days
  • Water Temperature
  • Satellite Maps
  • Weather Map
  • Weather Widgets
  • user-avatar
    Login

    Hourly Weather Córdoba

    Today, 26 March, Tuesday

    Time Temperature Precipitation Wind Pressure Humidity
    00:00 +15°C° 0.1 mm 1 mps 728 mmHg 77%
    01:00 +15°C° 0.1 mm 1 mps 728 mmHg 78%
    02:00 +15°C° 0.1 mm 1 mps 728 mmHg 78%
    03:00 +14°C° 0 mm 1 mps 728 mmHg 79%
    04:00 +14°C° 0 mm 1 mps 728 mmHg 80%
    05:00 +14°C° 0 mm 1 mps 728 mmHg 81%
    06:00 +14°C° 0 mm 1 mps 728 mmHg 79%
    07:00 +15°C° 0 mm 1 mps 729 mmHg 77%
    08:00 +15°C° 0 mm 1 mps 729 mmHg 75%
    09:00 +17°C° 0 mm 2 mps 730 mmHg 66%
    10:00 +18°C° 0 mm 2 mps 730 mmHg 58%
    11:00 +19°C° 0 mm 2 mps 730 mmHg 50%
    12:00 +20°C° 0 mm 3 mps 730 mmHg 49%
    13:00 +20°C° 0 mm 3 mps 730 mmHg 48%
    14:00 +21°C° 0 mm 3 mps 730 mmHg 47%
    15:00 +20°C° 0 mm 3 mps 729 mmHg 49%
    16:00 +20°C° 0 mm 3 mps 729 mmHg 51%
    17:00 +19°C° 0 mm 3 mps 729 mmHg 53%
    18:00 +18°C° 0 mm 2 mps 729 mmHg 58%
    19:00 +16°C° 0 mm 2 mps 729 mmHg 62%
    20:00 +15°C° 0 mm 1 mps 729 mmHg 67%
    21:00 +15°C° 0 mm 1 mps 730 mmHg 64%
    22:00 +16°C° 0 mm 2 mps 730 mmHg 61%
    23:00 +16°C° 0 mm 2 mps 730 mmHg 58%

    Tomorrow, 27 March, Wednesday

    Time Temperature Precipitation Wind Pressure Humidity
    00:00 +16°C° 0 mm 2 mps 730 mmHg 58%
    01:00 +18°C° 0 mm 1 mps 730 mmHg 58%
    02:00 +18°C° 0 mm 1 mps 730 mmHg 57%
    03:00 +16°C° 0 mm 1 mps 730 mmHg 61%
    04:00 +15°C° 0 mm 1 mps 730 mmHg 64%
    05:00 +14°C° 0 mm 1 mps 730 mmHg 67%
    06:00 +15°C° 0 mm 1 mps 730 mmHg 65%
    07:00 +14°C° 0 mm 0 mps 730 mmHg 63%
    08:00 +15°C° 0 mm 0 mps 731 mmHg 61%
    09:00 +18°C° 0 mm 1 mps 731 mmHg 59%
    10:00 +19°C° 0 mm 1 mps 731 mmHg 56%
    11:00 +19°C° 0 mm 2 mps 731 mmHg 54%
    12:00 +19°C° 0 mm 2 mps 730 mmHg 54%
    13:00 +19°C° 0 mm 2 mps 730 mmHg 55%
    14:00 +20°C° 0 mm 2 mps 729 mmHg 55%
    15:00 +20°C° 0 mm 2 mps 729 mmHg 57%
    16:00 +19°C° 0 mm 2 mps 728 mmHg 58%
    17:00 +19°C° 0 mm 2 mps 728 mmHg 60%
    18:00 +20°C° 0 mm 1 mps 728 mmHg 63%
    19:00 +19°C° 0 mm 1 mps 729 mmHg 66%
    20:00 +18°C° 0 mm 1 mps 729 mmHg 69%
    21:00 +18°C° 0 mm 1 mps 729 mmHg 69%
    22:00 +18°C° 0 mm 1 mps 729 mmHg 68%
    23:00 +19°C° 0 mm 1 mps 730 mmHg 68%

    Day after tomorrow, 28 March, Thursday

    Time Temperature Precipitation Wind Pressure Humidity
    00:00 +19°C° 0 mm 1 mps 729 mmHg 68%
    01:00 +19°C° 0 mm 1 mps 729 mmHg 68%
    02:00 +19°C° 0 mm 1 mps 729 mmHg 67%
    03:00 +18°C° 0 mm 1 mps 729 mmHg 68%
    04:00 +18°C° 0 mm 1 mps 728 mmHg 69%
    05:00 +18°C° 0 mm 1 mps 728 mmHg 70%
    06:00 +19°C° 0 mm 1 mps 729 mmHg 68%
    07:00 +19°C° 0 mm 1 mps 729 mmHg 67%
    08:00 +20°C° 0 mm 1 mps 729 mmHg 65%
    09:00 +19°C° 0 mm 2 mps 729 mmHg 64%
    10:00 +20°C° 0 mm 2 mps 729 mmHg 62%
    11:00 +21°C° 0 mm 3 mps 729 mmHg 61%
    12:00 +22°C° 0 mm 3 mps 729 mmHg 58%
    13:00 +23°C° 0 mm 4 mps 728 mmHg 55%
    14:00 +26°C° 0 mm 4 mps 728 mmHg 52%
    15:00 +26°C° 0 mm 4 mps 728 mmHg 54%
    16:00 +25°C° 0 mm 4 mps 727 mmHg 55%
    17:00 +25°C° 0 mm 4 mps 727 mmHg 56%
    18:00 +22°C° 0 mm 3 mps 727 mmHg 63%
    19:00 +21°C° 0 mm 3 mps 727 mmHg 69%
    20:00 +19°C° 0 mm 2 mps 727 mmHg 75%
    21:00 +18°C° 0 mm 2 mps 727 mmHg 78%
    22:00 +18°C° 0 mm 2 mps 727 mmHg 80%
    23:00 +18°C° 0 mm 1 mps 727 mmHg 82%

    29 March, Friday

    Time Temperature Precipitation Wind Pressure Humidity
    00:00 +18°C° 0 mm 1 mps 727 mmHg 83%
    01:00 +18°C° 0 mm 1 mps 727 mmHg 84%
    02:00 +16°C° 0 mm 1 mps 726 mmHg 84%
    03:00 +16°C° 0 mm 1 mps 726 mmHg 84%
    04:00 +16°C° 0 mm 1 mps 725 mmHg 83%
    05:00 +16°C° 0 mm 1 mps 725 mmHg 83%
    06:00 +19°C° 0 mm 1 mps 725 mmHg 77%
    07:00 +20°C° 0 mm 1 mps 725 mmHg 72%
    08:00 +20°C° 0 mm 2 mps 725 mmHg 67%
    09:00 +24°C° 0 mm 3 mps 725 mmHg 60%
    10:00 +27°C° 0 mm 4 mps 725 mmHg 53%
    11:00 +29°C° 0 mm 5 mps 725 mmHg 47%
    12:00 +30°C° 0 mm 5 mps 724 mmHg 45%
    13:00 +32°C° 0 mm 5 mps 723 mmHg 43%
    14:00 +33°C° 0 mm 5 mps 722 mmHg 42%
    15:00 +32°C° 0 mm 5 mps 722 mmHg 44%
    16:00 +32°C° 0 mm 4 mps 722 mmHg 46%
    17:00 +30°C° 0 mm 4 mps 721 mmHg 48%
    18:00 +29°C° 0 mm 3 mps 722 mmHg 53%
    19:00 +27°C° 0 mm 3 mps 722 mmHg 58%
    20:00 +26°C° 0 mm 2 mps 722 mmHg 63%
    21:00 +26°C° 0 mm 2 mps 722 mmHg 66%
    22:00 +25°C° 0 mm 1 mps 722 mmHg 68%
    23:00 +25°C° 0 mm 1 mps 723 mmHg 70%

    30 March, Saturday

    Time Temperature Precipitation Wind Pressure Humidity
    00:00 +24°C° 0 mm 1 mps 722 mmHg 72%
    01:00 +24°C° 0 mm 1 mps 722 mmHg 75%
    02:00 +23°C° 0 mm 1 mps 722 mmHg 77%
    03:00 +22°C° 0 mm 1 mps 722 mmHg 81%
    04:00 +22°C° 0 mm 1 mps 722 mmHg 86%
    05:00 +21°C° 0 mm 1 mps 722 mmHg 90%
    06:00 +22°C° 0.1 mm 1 mps 722 mmHg 88%
    07:00 +22°C° 0.1 mm 1 mps 722 mmHg 86%
    08:00 +23°C° 0.1 mm 1 mps 723 mmHg 85%
    09:00 +25°C° 0.3 mm 1 mps 723 mmHg 76%
    10:00 +27°C° 0.3 mm 1 mps 723 mmHg 68%
    11:00 +29°C° 0.3 mm 1 mps 723 mmHg 60%
    12:00 +30°C° 0.2 mm 2 mps 723 mmHg 55%
    13:00 +31°C° 0.2 mm 3 mps 722 mmHg 51%
    14:00 +33°C° 0.2 mm 3 mps 722 mmHg 46%
    15:00 +33°C° 0 mm 3 mps 722 mmHg 48%
    16:00 +31°C° 0 mm 3 mps 722 mmHg 50%
    17:00 +30°C° 0 mm 3 mps 722 mmHg 52%
    18:00 +28°C° 0 mm 2 mps 722 mmHg 59%
    19:00 +27°C° 0 mm 1 mps 722 mmHg 65%
    20:00 +23°C° 0 mm 0 mps 722 mmHg 71%
    21:00 +24°C° 0 mm 1 mps 722 mmHg 73%
    22:00 +24°C° 0 mm 1 mps 722 mmHg 74%
    23:00 +23°C° 0 mm 1 mps 722 mmHg 75%

    31 March, Sunday

    Time Temperature Precipitation Wind Pressure Humidity
    00:00 +23°C° 0 mm 1 mps 722 mmHg 76%
    01:00 +23°C° 0 mm 1 mps 722 mmHg 76%
    02:00 +23°C° 0 mm 1 mps 721 mmHg 77%
    03:00 +23°C° 0 mm 1 mps 721 mmHg 77%
    04:00 +22°C° 0 mm 1 mps 721 mmHg 77%
    05:00 +22°C° 0 mm 1 mps 721 mmHg 77%
    06:00 +24°C° 0 mm 1 mps 721 mmHg 73%
    07:00 +25°C° 0 mm 1 mps 722 mmHg 69%
    08:00 +26°C° 0 mm 1 mps 722 mmHg 65%
    09:00 +28°C° 0 mm 1 mps 722 mmHg 59%
    10:00 +30°C° 0 mm 2 mps 722 mmHg 52%
    11:00 +33°C° 0 mm 3 mps 722 mmHg 46%
    12:00 +34°C° 0 mm 3 mps 721 mmHg 43%
    13:00 +34°C° 0 mm 3 mps 721 mmHg 41%
    14:00 +35°C° 0 mm 3 mps 720 mmHg 38%
    15:00 +35°C° 0 mm 4 mps 720 mmHg 39%
    16:00 +34°C° 0 mm 4 mps 720 mmHg 41%
    17:00 +34°C° 0 mm 4 mps 719 mmHg 42%
    18:00 +30°C° 0 mm 3 mps 720 mmHg 47%
    19:00 +28°C° 0 mm 3 mps 720 mmHg 53%
    20:00 +26°C° 0 mm 2 mps 720 mmHg 58%
    21:00 +25°C° 0 mm 2 mps 721 mmHg 60%
    22:00 +25°C° 0 mm 2 mps 721 mmHg 63%
    23:00 +24°C° 0 mm 1 mps 721 mmHg 65%
    Show more